Location: Azalea Creek
(37.1280°N, 119.2623°W)
Time: 21:58:26
(UTC+00:00)

STARLINK-61 - Pass Details

Date: 17 February 2020
Orbit: 506 x 518 km, 53.0° (Epoch: 29 March)

Event Time Altitude Azimuth Distance (km) Brightness Sun altitude
Rises 02:57:06 0° 237° (WSW) 2,595 8.1 -16.4°
Reaches altitude 10° 02:59:19 10° 242° (WSW) 1,715 7.1 -16.9°
Maximum altitude 03:03:07 55° 320° (NW) 615 4.0 -17.6°
Enters shadow 03:05:10 25° 29° (NNE) 1,059 4.8 -18.0°
